GPS BIIF-3 (PRN 24)

Last updated on Wed Jun 24 2026 00:03:27 GMT+0000 (Coordinated Universal Time)

1 38833U 12053A 26173.30186744 .00000063 00000+0 00000+0 0 9995 2 38833 53.5869 143.3898 0180588 65.8280 296.0242 2.00567577 99549
UTC large
Height (km)
Speed (km/s)
/
Latitude / Longitude
Inclination (degrees)
Orbital Period (minutes)
Azimuth
Elevation
Range (km)
Doppler Factor

Next 0 passes for location: London (51.5072 / 0.1276)

No passes found over London.
GPS BIIF-3 (PRN 24)